Weather observations for the past three days for
Clemson, Clemson-Oconee County Airport
Imperial (Metric)
Date Time (edt) Wind (mph) Vis. (mi.) Weather Sky Cond. Temperature (ºF) Relative Humidity Wind Chill (°F) Heat Index (°F) Pressure Precipitation (in)
Air Dwpt 6 hour altimeter (in) sea level (mb) 1 hr 3 hr 6 hr
Max. Min.
22 21:54 Calm 10.00 Fair CLR 82.9 71.1 67% 88 30.03 1015.7
22 20:54 Calm 10.00 A Few Clouds FEW055 84 70 63% 88 30.01 1015.1
22 19:54 Calm 10.00 Fair CLR 88 69.1 91.9 87.1 54% 92 30.01 1015.1
22 18:54 Calm 10.00 Fair CLR 90 69.1 50% 95 30.01 1015.1
22 17:54 SE 5 10.00 Fair CLR 90 68 48% 94 30.02 1015.4
22 16:54 E 6 10.00 Fair CLR 90 68 48% 94 30.04 1015.9
22 15:54 Calm 10.00 Fair CLR 90 69.1 50% 95 30.06 1016.8
22 14:54 Vrbl 5 10.00 Partly Cloudy FEW048 SCT080 88 70 55% 93 30.08 1017.5
22 13:54 W 7 10.00 A Few Clouds FEW041 FEW055 88 71.1 89.1 73 57% 94 30.11 1018.4
22 12:54 Calm 10.00 Mostly Cloudy SCT038 BKN055 87.1 71.1 59% 93 30.14 1019.2
22 11:54 Vrbl 6 10.00 A Few Clouds FEW030 84.9 72 65% 91 30.15 1019.9
22 10:54 Vrbl 5 10.00 Fair CLR 84 70 63% 88 30.16 1020.2
22 09:54 E 3 10.00 Fair CLR 80.1 69.1 69% 83 30.17 1020.4
22 08:54 NE 3 10.00 Fair CLR 78.1 69.1 74% 80 30.17 1020.5
22 07:54 Calm 10.00 Fair CLR 73 68 73 69.1 84% 30.17 1020.5
22 06:54 N 3 10.00 Fair CLR 70 66.9 90% 30.17 1020.4
22 05:54 N 5 10.00 Fair CLR 69.1 66.9 93% 30.16 1020.3
22 04:54 Calm 10.00 Fair CLR 70 66 87% 30.16 1020.2
22 03:54 Calm 10.00 Fair CLR 71.1 66.9 87% 30.16 1020.2
22 02:54 Calm 10.00 Fair CLR 72 66.9 84% 30.17 1020.3
22 01:54 Calm 10.00 Partly Cloudy SCT060 73 68 84.9 73 84% 30.18 1020.8
22 00:54 Calm 10.00 Fair CLR 73.9 64.9 74% 30.18 1020.9
21 23:54 Calm 10.00 Fair CLR 75 66 74% 76 30.18 1021.0
21 22:54 Calm 10.00 Fair CLR 79 64 60% 81 30.18 1020.6
21 21:54 Calm 10.00 Fair CLR 81 64 57% 83 30.16 1020.3
21 20:54 Calm 10.00 Fair CLR 82 64.9 56% 84 30.15 1019.9
21 19:54 SE 3 10.00 Fair CLR 84.9 66 90 84.9 53% 87 30.15 1019.8
21 18:54 SE 5 10.00 Fair CLR 87.1 64.9 48% 89 30.15 1019.7
21 17:54 SE 6 10.00 Fair CLR 88 64.9 46% 90 30.15 1020.0
21 16:54 Calm 10.00 Fair CLR 89.1 64.9 45% 91 30.17 1020.6
21 15:54 Vrbl 3 10.00 A Few Clouds FEW060 88 64.9 46% 90 30.18 1020.8
21 14:54 E 7 10.00 A Few Clouds FEW055 89.1 64.9 45% 91 30.21 1021.7
21 13:54 Calm 10.00 Fair CLR 86 66 87.1 71.1 51% 88 30.23 1022.5
21 12:54 Vrbl 3 10.00 A Few Clouds FEW048 84.9 66.9 55% 88 30.25 1023.4
21 11:54 SE 6 10.00 Fair CLR 82 66.9 60% 85 30.27 1023.9
21 10:54 N 5 10.00 Fair CLR 80.1 66.9 64% 82 30.28 1024.3
21 09:54 N 6 10.00 Fair CLR 77 66.9 71% 79 30.28 1024.3
21 08:54 NW 6 10.00 Fair CLR 73.9 66.9 79% 30.29 1024.5
21 07:54 E 3 10.00 Fair CLR 71.1 66 72 66.9 84% 30.29 1024.6
21 06:54 Calm 10.00 Fair CLR 68 66 93% 30.28 1024.4
21 05:54 Calm 10.00 Fair CLR 69.1 66.9 93% 30.28 1024.2
21 04:54 Calm 10.00 Fair CLR 69.1 68 96% 30.26 1023.6
21 03:54 Calm 10.00 Fair CLR 71.1 69.1 94% 30.26 1023.5
21 02:54 N 5 10.00 Fair CLR 71.1 69.1 94% 30.26 1023.5
21 01:54 NW 3 10.00 Fair CLR 72 68 84.9 71.1 87% 30.27 1023.9
21 00:54 Calm 10.00 Fair CLR 73 64.9 76% 30.28 1024.1
20 23:54 Calm 10.00 Fair CLR 73.9 64.9 74% 30.28 1024.3
20 22:54 Calm 10.00 Fair CLR 77 66 69% 79 30.28 1024.3
20 21:54 Calm 10.00 Fair CLR 75.9 64.9 69% 78 30.26 1023.7
20 20:54 E 3 10.00 Fair CLR 81 64 57% 83 30.25 1023.4
20 19:54 E 6 10.00 Mostly Cloudy BKN060 84.9 64 88 82.9 50% 86 30.25 1023.4
20 18:54 E 3 10.00 Fair CLR 87.1 64 46% 88 30.25 1023.4
20 17:54 E 5 10.00 Mostly Cloudy BKN055 BKN070 84.9 63 48% 86 30.26 1023.6
20 16:54 E 5 10.00 A Few Clouds FEW060 86 64 48% 87 30.27 1024.0
20 15:54 Vrbl 6 10.00 Mostly Cloudy SCT055 BKN070 84.9 64 50% 86 30.29 1024.6
20 14:54 E 7 10.00 Mostly Cloudy BKN050 BKN070 84 64.9 53% 86 30.31 1025.2
20 13:54 E 6 10.00 Mostly Cloudy BKN050 BKN070 82.9 64 84.9 72 53% 84 30.33 1026.0
20 12:54 NE 9 10.00 Mostly Cloudy BKN048 BKN070 82.9 64.9 55% 85 30.35 1026.7
20 11:54 Vrbl 7 10.00 Partly Cloudy SCT043 81 64.9 58% 83 30.36 1027.1
20 10:54 E 3 10.00 Fair CLR 81 66 61% 83 30.36 1027.1
20 09:54 Vrbl 6 10.00 Fair CLR 79 64.9 62% 81 30.36 1026.9
20 08:54 E 5 10.00 Fair CLR 75.9 66 72% 77 30.36 1026.8
20 07:54 Calm 10.00 Mostly Cloudy BKN060 72 66 72 70 82% 30.35 1026.5
20 06:54 Calm 10.00 Overcast OVC060 70 64.9 84% 30.33 1026.2
20 05:54 N 3 10.00 Overcast OVC060 70 64.9 84% 30.32 1025.8
20 04:54 Calm 10.00 Mostly Cloudy BKN060 70 64.9 84% 30.31 1025.3
20 03:54 Calm 10.00 Overcast OVC060 71.1 64.9 81% 30.3 1025.0
20 02:54 NE 3 10.00 Partly Cloudy SCT060 72 64 76% 30.28 1024.4
20 01:54 E 5 10.00 Fair CLR 72 64 81 72 76% 30.28 1024.4
20 00:54 NE 3 10.00 Fair CLR 73 64 74% 30.28 1024.4
19 23:54 N 6 10.00 Fair CLR 73 64.9 76% 30.3 1024.9
19 22:54 NE 3 10.00 Fair CLR 75 64.9 71% 77 30.29 1024.8
Date Time (edt) Wind (mph) Vis. (mi.) Weather Sky Cond. Air Dwpt Max. Min. Relative Humidity Wind Chill (°F) Heat Index (°F) altimeter (in) sea level (mb) 1 hr 3 hr 6 hr
6 hour
Temperature (ºF) Pressure Precipitation (in)